Regional Weather Roundup
Issued by NWS

Home | Current Version | Previous Version | Graphics & Text | Print | Product List | Glossary On
Versions: 1 2 3 4 5 6 7 8 9 10 11 12 13 14 15 16 17 18 19 20 21 22 23 24 25 26 27 28 29 30 31 32 33 34 35 36 37 38 39 40 41 42 43 44 45 46 47 48 49 50
000
ASUS43 KFSD 222302
RWRSD

WEATHER ROUNDUP FOR SOUTH DAKOTA
NATIONAL WEATHER SERVICE SIOUX FALLS SD
600 PM CDT FRI AUG 22 2014

NOTE: "FAIR" INDICATES FEW OR NO CLOUDS BELOW 12,000 FEET WITH NO
SIGNIFICANT WEATHER AND/OR OBSTRUCTIONS TO VISIBILITY.


SDZ001>005-009-010-012>017-230000-
NORTHWEST AND NORTH CENTRAL SOUTH DAKOTA

CITY           SKY/WX    TMP DP  RH WIND       PRES   REMARKS
BUFFALO          N/A     70  60  70 E12       29.98F
FAITH            N/A     72  63  73 NE14      30.03S
MOBRIDGE       PTSUNNY   74  64  71 N8        30.00F
$$

SDZ012>016-024>037-041>051-057-063-072>074-230000-
SOUTHWEST AND SOUTH CENTRAL SOUTH DAKOTA

CITY           SKY/WX    TMP DP  RH WIND       PRES   REMARKS
RAPID CTY ARPT PTSUNNY   75  61  61 E9        30.02F
PIERRE         PTSUNNY   79  65  62 E15       29.97S
ELLSWORTH AFB  PTSUNNY   74  62  65 E8        30.02F
PHILIP         PTSUNNY   84  63  49 VRB7G17   29.97S
PINE RIDGE     CLOUDY    76  62  62 E9        30.02F
WINNER         CLOUDY    82  68  62 SE12      29.98S
$$

SDZ004>011-016>023-039-040-230000-
NORTHEAST SOUTH DAKOTA

CITY           SKY/WX    TMP DP  RH WIND       PRES   REMARKS
ABERDEEN       PTSUNNY   76  67  73 NE8       30.00F
WATERTOWN      PTSUNNY   78  67  68 E8        30.01R
SISSETON         N/A     78  70  76 N7        29.99R
$$

SDZ017-020-022-023-036>040-048>070-230000-
SOUTHEAST SOUTH DAKOTA

CITY           SKY/WX    TMP DP  RH WIND       PRES   REMARKS
SIOUX FALLS    PTSUNNY   84  68  58 E7        29.97F
HURON          CLOUDY    77  69  76 N14       29.96S
CHAMBERLAIN    CLOUDY    81  67  62 E7        29.97F
MITCHELL       CLOUDY    83  73  72 E5        29.96S
YANKTON        PTSUNNY   84  72  65 NE8       29.92F
$$

ABBREVIATIONS USED IN REMARKS
   TC - TEMPERATURE IN CELSIUS
  WCI - WIND CHILL INDEX
   HX - HEAT INDEX
  VSB - VISIBILITY



USA.gov is the U.S. government's official web portal to all federal, state and local government web resources and services.